Погода в Лондрине

Бразилия     23°17′51″S   51°09′36″W
темп.,
°C
ветер,
м/с
пор.,
м/с
влажн.,
%
обл.,
%
осадки,
мм/ч
давл.,
гПа
погр.,
м
27 февраля, сб
сб2700:00+18юв412960 0.0 1013581
03:00+17юв311950 0.0 1012419
06:00+17юв37951 0.0 1013235
09:00+21вюв59857 0.0 1015601
12:00+26в446911 0.0 10131003
15:00+27юв226518 0.7 10111142
18:00+24юв36874 3.3 1009317
21:00+20юв514932 3.6 1012536
28 февраля, вс
вс2800:00+18вюв414950 0.0 1013690
03:00+18вюв414950 0.0 1011661
06:00+18вюв4119728 0.0 1012485
09:00+21в589049 0.0 1013640
12:00+24всв468080 0.8 1013871
15:00+25всв458568 4.1 1010747
18:00+24вюв368825 1.3 1008558
21:00+21в379235 2.4 1010192
1 марта, пн
пн100:00+20в3996100 4.7 1011306
03:00+19вюв3697100 4.7 1010188
06:00+18в389772 0.0 1011262
09:00+22св488937 0.0 1012593
12:00+26св467245 0.2 10111132
15:00+26ссв458239 4.2 1009842
18:00+24св368983 3.4 1008559
21:00+21в229491 3.5 101036
2 марта, вт
вт200:00+20всв1295100 0.0 101247
03:00+20в2295100 0.1 101153
06:00+19в229791 0.0 101245
09:00+23всв348853 0.2 1013373
12:00+26с46753 4.7 1012868
15:00+27с45729 8.8 10101092
18:00+25ссв237893 0.2 1010102
21:00+22вюв118797 0.3 101223
3 марта, ср
ср300:00+20вюв1295100 4.1 101436
03:00+20вюв1297100 7.8 101353
06:00+19вюв239994 6.1 1014123
09:00+22всв349491 6.7 1016398
12:00+26с3579100 1.6 1014737
15:00+28ссз2365100 2.8 10121364
18:00+27с117688 0.1 101125
21:00+21св239179 1.1 101365